Ridgely, TN (38080)

6:14 AM CST on February 09, 2016 (GMT -0600)
Reelfoot Lake Cabins Project | | Change Station
CLOSE
Current Station
Personal Weather Station
Location: Tiptonville, TN
Elevation: 279 ft
Nearby Weather Stations
Active Advisory: Flood Advisory

Elev 279 ft 36.35 °N, 89.41 °W | Updated 5 seconds ago

Snow
Snow
26.9 °F
Feels Like 21 °F
N
4.7
Wind Variable Wind from NNW

Today
High -- | Low -- °F
--% Chance of Precip.
Yesterday
High -- | Low -- °F
Precip. -- in
Pressure 29.96 in
Visibility 8.0 miles
Clouds Few 2300 ft
Mostly Cloudy 2800 ft
Overcast 4600 ft
Windchill 21 °F
Dew Point 24 °F
Humidity 88%
Rainfall 0.00 in
Snow Depth Not available.
6:52 AM 5:32 PM
New Moon, 1% visible
METAR KDYR 091155Z AUTO 33005KT 8SM FEW023 BKN028 OVC046 M03/M07 A2996 RMK AO1 11010 21030 52007
Pressure 29.96 in
Visibility 8.0 miles
Clouds Few 2300 ft
Mostly Cloudy 2800 ft
Overcast 4600 ft
Windchill 21 °F
Dew Point 24 °F
Humidity 88%
Rainfall 0.00 in
Snow Depth Not available.
6:52 AM 5:32 PM
New Moon, 1% visible
METAR KDYR 091155Z AUTO 33005KT 8SM FEW023 BKN028 OVC046 M03/M07 A2996 RMK AO1 11010 21030 52007

10-Day Weather Forecast

Almanac

Astronomy

Feb. 09, 2016 Rise Set
Actual Time
Civil Twilight
Nautical Twilight
Astronomical Twilight
Moon
Length of Visible Light
Length of Day
Tomorrow will be .
, % of the Moon is Illuminated

Today's Extremes

State Highs State Lows

Community

WunderPhotos

Upload Photos

1,891,588 photos uploaded!

WunderBlog® & News

Nearby

Air Quality

  Air Quality AQ Index Pollutant
Not available.

Snow Depth

Station Depth Elevation

Earthquake Activity

City Distance Mag. Time & Date
Minimum magnitude displayed is 2.5.

Coastal Water Temperatures

Place Temperature

Stations

Nearby Weather Stations

Station Location Temp. Windchill Dew Point Humidity Wind Precip. Elev Updated Type
                   

Watches & Warnings

Flood Advisory
Issued: 9:18 PM CST Feb. 8, 2016 – National Weather Service

The Flood Advisory continues for
the Mississippi River at Caruthersville
* until Saturday February 13.
* At 09 PM Monday the stage was 28.4 feet.
* Flood stage is 32.0 feet.
* Forecast... the river will rise to near 29.8 feet Thursday February
11.
* At 30.0 feet... sloughs are flooding fields just north of Chisholm
Lake, Tennessee.


Lat... Lon 3623 8977 3623 8948 3606 8950 3595 8948
      3582 8956 3582 8985